Ignacio, CO

4:21 PM MST on February 25, 2017 (GMT -0700)
Durango-La Plata County

Weather History for KDRO - January, 2014

Change the Weather History Date:

Saturday, January 25, 2014

  Actual Average Record
Temperature  
Mean Temperature 27 °F 24 °F  
Max Temperature 43 °F 38 °F 54 °F (1970)
Min Temperature 11 °F 10 °F -7 °F (1988)
Degree Days  
Heating Degree Days 38 41  
Month to date heating degree days 923 1042  
Since 1 July heating degree days 3881 3916  
Cooling Degree Days 0 0  
Month to date cooling degree days 0 0  
Year to date cooling degree days 0 0  
Moisture  
Dew Point 12 °F    
Average Humidity 57    
Maximum Humidity 84    
Minimum Humidity 29    
Precipitation  
Precipitation 0.00 in 0.03 in 0.38 in (1989)
Month to date precipitation T 0.92  
Year to date precipitation T 0.92  
Sea Level Pressure  
Sea Level Pressure 30.39 in    
Wind  
Wind Speed 4 mph (NNE)    
Max Wind Speed 10 mph    
Max Gust Speed 14 mph    
Visibility 10 miles    
Events      
T = Trace of Precipitation, MM = Missing Value Source: NWS Daily Summary

Daily Weather History Graph

Daily Weather History Graph

Search for Another Location

Airport or City:

Trip Planner

Search our weather history database for the weather conditions in past years. The results will help you decide how hot, cold, wet, or windy it might be!

Date:

Astronomy

Jan. 25, 2014 Rise Set
Actual Time 7:18 AM MST 5:28 PM MST
Civil Twilight 6:51 AM MST 5:56 PM MST
Nautical Twilight 6:19 AM MST 6:27 PM MST
Astronomical Twilight 5:48 AM MST 6:58 PM MST
Moon 1:54 AM MST 12:30 PM MST
Length of Visible Light 11h 05m
Length of Day
10h 09m
Waning Crescent, 33% of the Moon is Illuminated
Jan 25
Waning Crescent
Jan 30
New
Feb 6
First Quarter
Feb 14
Full
Feb 22
Last Quarter

Hourly Weather History & Observations

Time (MST) Temp. Windchill Dew Point Humidity Pressure Visibility Wind Dir Wind Speed Gust Speed Precip Events Conditions
12:53 AM 17.1 °F 11.7 °F 10.9 °F 77% 30.52 in 10.0 mi North 3.5 mph - N/A   Clear
1:53 AM 15.1 °F 9.4 °F 10.0 °F 80% 30.50 in 10.0 mi ENE 3.5 mph - N/A   Clear
2:53 AM 16.0 °F - 10.0 °F 77% 30.48 in 10.0 mi Calm Calm - N/A   Clear
3:53 AM 16.0 °F - 10.9 °F 81% 30.48 in 10.0 mi Calm Calm - N/A   Clear
4:53 AM 16.0 °F 6.3 °F 10.9 °F 81% 30.48 in 10.0 mi North 6.9 mph - N/A   Clear
5:53 AM 15.1 °F 9.4 °F 10.0 °F 80% 30.50 in 10.0 mi NNE 3.5 mph - N/A   Clear
6:53 AM 12.9 °F - 9.0 °F 84% 30.51 in 10.0 mi Calm Calm - N/A   Clear
7:53 AM 12.9 °F 5.2 °F 9.0 °F 84% 30.54 in 10.0 mi ENE 4.6 mph - N/A   Clear
8:53 AM 21.0 °F 14.6 °F 12.9 °F 71% 30.52 in 10.0 mi ENE 4.6 mph - N/A   Clear
9:53 AM 27.0 °F 23.0 °F 16.0 °F 63% 30.50 in 10.0 mi East 3.5 mph - N/A   Clear
10:53 AM 34.0 °F - 15.1 °F 46% 30.45 in 10.0 mi Calm Calm - N/A   Clear
11:53 AM 37.9 °F 35.5 °F 15.1 °F 39% 30.39 in 10.0 mi SW 3.5 mph - N/A   Clear
12:53 PM 41.0 °F 37.1 °F 14.0 °F 33% 30.34 in 10.0 mi WSW 5.8 mph - N/A   Clear
1:53 PM 42.1 °F 39.2 °F 12.9 °F 31% 30.31 in 10.0 mi Variable 4.6 mph - N/A   Clear
2:53 PM 42.1 °F 37.7 °F 14.0 °F 32% 30.29 in 10.0 mi WSW 6.9 mph - N/A   Clear
3:53 PM 42.1 °F 36.6 °F 12.9 °F 31% 30.28 in 10.0 mi SW 9.2 mph - N/A   Clear
4:53 PM 39.0 °F 34.8 °F 12.0 °F 33% 30.27 in 10.0 mi SW 5.8 mph - N/A   Clear
5:53 PM 34.0 °F 28.0 °F 10.9 °F 38% 30.30 in 10.0 mi SW 6.9 mph - N/A   Clear
6:53 PM 30.9 °F 26.2 °F 12.0 °F 46% 30.33 in 10.0 mi North 4.6 mph - N/A   Clear
7:53 PM 23.0 °F 17.0 °F 10.0 °F 58% 30.36 in 10.0 mi ENE 4.6 mph - N/A   Clear
8:53 PM 24.1 °F - 10.9 °F 57% 30.31 in 10.0 mi Calm Calm - N/A   Clear
9:53 PM 21.9 °F - 12.0 °F 66% 30.28 in 10.0 mi Calm Calm - N/A   Clear
10:53 PM 21.9 °F - 10.9 °F 63% 30.25 in 10.0 mi Calm Calm - N/A   Clear
11:53 PM 23.0 °F 18.4 °F 12.9 °F 65% 30.21 in 10.0 mi North 3.5 mph - N/A   Clear